Погода в Медякове

Россия / Новосибирская область     54°07′43″N   77°05′31″E
темп.,
°C
ветер,
м/с
пор.,
м/с
влажн.,
%
обл.,
%
осадки,
мм/ч
давл.,
гПа
погр.,
м
11 мая, вт
вт1101:00+10ссв613495 0.0 1020299
04:00+8ссв411635 0.0 1019250
07:00+7ссв512660 0.0 1020292
10:00+13ссв710452 0.0 1020973
13:00+15ссв774174 0.0 10201460
16:00+17ссв773376 0.0 10202368
19:00+18ссв67315 0.0 10212352
22:00+13с47445 0.0 1022123
12 мая, ср
ср1201:00+11с344990 0.0 102357
04:00+10с225441 0.0 102315
07:00+9ссз22591 0.0 102332
10:00+15ссз453841 0.0 1023650
13:00+19ссз4625100 0.0 10221700
16:00+21сз4623100 0.0 10202412
19:00+20сз4731100 0.0 10192513
22:00+17з71050100 0.0 1019573
13 мая, чт
чт1301:00+15ссз485063 0.1 1018416
04:00+12ссз51072100 0.0 1018364
07:00+10ссз51169100 0.0 1019508
10:00+13с8113761 0.0 10191121
13:00+16с89304 0.0 10191725
16:00+18с793097 0.0 10182164
19:00+18ссз693144 0.0 10182434
22:00+15ссз47456 0.0 1018214
14 мая, пт
пт1401:00+12сз4107780 0.0 1019216
04:00+10сз4989100 0.0 1019245
07:00+10с61183100 0.0 1021464
10:00+13с686235 0.0 1023826
13:00+16с67425 0.0 10241300
16:00+18с67283 0.0 10241543
19:00+19с562529 0.0 10241540
22:00+14ссв113635 0.0 102510
15 мая, сб
сб1501:00+13юз223934 0.0 102510
04:00+11юз334450 0.0 102434
07:00+11юз464742 0.0 1024107
10:00+19зюз58310 0.0 1024567
13:00+24зюз45285 0.0 10221248
16:00+26з57295 0.0 10202275
19:00+26з3529100 0.0 10181885
22:00+21зюз334060 0.0 101817